Weather History for KISP - November, 2013

Change the Weather History Date:

Wednesday, November 6, 2013

  Actual Average Record
Temperature  
Mean Temperature 49 °F 48 °F  
Max Temperature 60 °F 56 °F 68 °F (1994)
Min Temperature 37 °F 40 °F 26 °F (2012)
Degree Days  
Heating Degree Days 16 17  
Month to date heating degree days 91 98  
Since 1 July heating degree days 413 518  
Cooling Degree Days 0 0  
Month to date cooling degree days 0 0  
Year to date cooling degree days 957 787  
Moisture  
Dew Point 45 °F    
Average Humidity 73    
Maximum Humidity 93    
Minimum Humidity 53    
Precipitation  
Precipitation 0.00 in 0.11 in 0.64 in (2002)
Month to date precipitation 0.04 0.69  
Year to date precipitation 30.65 39.20  
Snow  
Snow 0.00 in 0.00 in - ()
Month to date snowfall 0.0 0.0  
Since 1 July snowfall 0.0 0.0  
Snow Depth 0.00 in    
Sea Level Pressure  
Sea Level Pressure 30.30 in    
Wind  
Wind Speed 6 mph (South)    
Max Wind Speed 16 mph    
Max Gust Speed 21 mph    
Visibility 10 miles    
Events      
T = Trace of Precipitation, MM = Missing Value Source: NWS Daily Summary

Daily Weather History Graph

Daily Weather History Graph

Search for Another Location

Airport or City:

Trip Planner

Search our weather history database for the weather conditions in past years. The results will help you decide how hot, cold, wet, or windy it might be!

Date:

Astronomy

Nov. 06, 2013 Rise Set
Actual Time 6:28 AM EST 4:42 PM EST
Civil Twilight 6:00 AM EST 5:11 PM EST
Nautical Twilight 5:27 AM EST 5:43 PM EST
Astronomical Twilight 4:55 AM EST 6:16 PM EST
Moon 9:41 AM EST (11/6) 7:43 PM EST (11/6)
Length of Visible Light 11h 11m
Length of Day
10h 13m
Waxing Crescent, 13% of the Moon is Illuminated
Nov 6
Waxing Crescent
Nov 10
First Quarter
Nov 17
Full
Nov 25
Last Quarter
Dec 2
New

Hourly Weather History & Observations

Time (EST) Temp. Windchill Dew Point Humidity Pressure Visibility Wind Dir Wind Speed Gust Speed Precip Events Conditions
12:56 AM 43.0 °F - 37.0 °F 80% 30.48 in 10.0 mi Calm Calm - N/A   Clear
1:56 AM 43.0 °F - 37.0 °F 80% 30.47 in 10.0 mi Calm Calm - N/A   Clear
2:56 AM 41.0 °F - 35.1 °F 79% 30.46 in 10.0 mi Calm Calm - N/A   Clear
3:56 AM 39.0 °F - 34.0 °F 82% 30.45 in 10.0 mi Calm Calm - N/A   Clear
4:56 AM 37.9 °F - 34.0 °F 86% 30.44 in 10.0 mi Calm Calm - N/A   Clear
5:56 AM 37.9 °F - 34.0 °F 86% 30.43 in 10.0 mi Calm Calm - N/A   Mostly Cloudy
6:56 AM 39.0 °F 36.8 °F 35.1 °F 86% 30.43 in 10.0 mi SE 3.5 mph - N/A   Scattered Clouds
7:56 AM 51.1 °F - 46.0 °F 83% 30.42 in 10.0 mi Calm Calm - N/A   Scattered Clouds
8:56 AM 57.0 °F - 45.0 °F 64% 30.40 in 10.0 mi South 6.9 mph - N/A   Scattered Clouds
9:56 AM 57.9 °F - 43.0 °F 58% 30.38 in 10.0 mi SSW 11.5 mph - N/A   Partly Cloudy
10:56 AM 59.0 °F - 43.0 °F 55% 30.37 in 10.0 mi SSW 9.2 mph - N/A   Partly Cloudy
11:56 AM 59.0 °F - 42.1 °F 53% 30.33 in 10.0 mi South 10.4 mph - N/A   Partly Cloudy
12:56 PM 60.1 °F - 45.0 °F 57% 30.29 in 10.0 mi South 12.7 mph - N/A   Scattered Clouds
1:56 PM 60.1 °F - 46.9 °F 62% 30.28 in 10.0 mi SSW 11.5 mph - N/A   Mostly Cloudy
2:56 PM 59.0 °F - 48.9 °F 69% 30.26 in 10.0 mi South 11.5 mph - N/A   Mostly Cloudy
3:38 PM 57.2 °F - 48.2 °F 72% 30.26 in 10.0 mi SSW 12.7 mph - N/A   Overcast
3:56 PM 57.9 °F - 48.9 °F 72% 30.27 in 10.0 mi South 10.4 mph - N/A   Mostly Cloudy
4:56 PM 55.9 °F - 48.9 °F 77% 30.24 in 10.0 mi South 8.1 mph - N/A   Mostly Cloudy
5:13 PM 55.4 °F - 48.2 °F 77% 30.23 in 10.0 mi South 5.8 mph - N/A   Mostly Cloudy
5:56 PM 55.0 °F - 48.9 °F 80% 30.21 in 10.0 mi South 5.8 mph - N/A   Mostly Cloudy
6:56 PM 54.0 °F - 48.9 °F 83% 30.20 in 10.0 mi South 4.6 mph - N/A   Mostly Cloudy
7:56 PM 55.0 °F - 50.0 °F 83% 30.17 in 10.0 mi SSW 6.9 mph - N/A   Mostly Cloudy
8:56 PM 55.0 °F - 51.1 °F 86% 30.15 in 10.0 mi South 5.8 mph - N/A   Mostly Cloudy
9:56 PM 55.9 °F - 53.1 °F 90% 30.13 in 10.0 mi South 6.9 mph - N/A   Overcast
10:56 PM 57.9 °F - 54.0 °F 87% 30.10 in 10.0 mi South 9.2 mph - N/A   Overcast
11:56 PM 59.0 °F - 55.0 °F 87% 30.08 in 10.0 mi SSW 10.4 mph - N/A   Overcast